Regional Weather Roundup
Issued by NWS

Home | Current Version | Previous Version | Text Only | Print | Product List | Glossary On
Versions: 1 2 3 4 5 6 7 8 9 10 11 12 13 14 15 16 17 18 19 20 21 22 23 24 25 26 27 28 29 30 31 32 33 34 35 36 37 38 39 40 41 42 43 44 45 46 47 48 49 50
000
ASUS45 KTFX 271319
RWRMT
MONTANA HOURLY WEATHER ROUNDUP
NATIONAL WEATHER SERVICE GREAT FALLS MT
619 AM MST THU NOV 27 2014

NOTE: "FAIR" INDICATES FEW OR NO CLOUDS BELOW 12000 FEET WITH NO
SIGNIFICANT WEATHER AND/OR OBSTRUCTIONS TO VISIBILITY.

* THESE STATIONS ARE NOT UNDER NWS QUALITY CONTROL. THEY DO NOT
   REPORT WEATHER SUCH AS PRECIPITATION OR FOG.

MTZ001>007-043-271400-
WEST OF THE DIVIDE
CITY           SKY/WX    TMP DP  RH WIND       PRES   REMARKS
KALISPELL      LGT RAIN  34  34 100 W7        29.87F WCI  28
MISSOULA       FOG       30  30 100 CALM      29.99F VSB 1/2
BUTTE          CLOUDY    46  27  48 SW14G20   30.05S
MULLAN PASS    LGT RAIN  36  32  85 SW12G31   29.93F WCI  28
* ESSEX        N/A       34  34 100 S1         N/A
* EUREKA APT   CLOUDY    43  39  86 SE9       29.82F
* HAMILTON APT CLOUDY    50  32  50 S12       30.01R
* LIBBY APT    MOCLDY    34  34 100 CALM      29.85F
* LINCOLN      N/A       35  33  92 E2         N/A
* LOOKOUT PASS N/A       42  35  76 SE3G9      N/A
* PLAINS APT   MOCLDY    32  28  85 N/A        N/A
* POLSON       N/A       38  36  93 SE3        N/A
* RONAN APT    MOCLDY    45  34  65 SE10G24    N/A
* SEELEY LAKE  N/A       32  31  96 E1G6       N/A
* THOMP F APT  MOCLDY    33  28  82 N/A        N/A
* YAAK HILL    N/A       35  33  92 N3         N/A
$$

MTZ008-052>055-271400-
SOUTHWEST MONTANA
CITY           SKY/WX    TMP DP  RH WIND       PRES   REMARKS
BOZEMAN        CLOUDY    36  28  73 SE9       30.00F WCI  29
DILLON         MOCLDY    41  25  53 S15       30.07F
* W YELLOWSTON CLOUDY    34  28  79 SW4G12     N/A
* ENNIS APT    CLOUDY    45  27  49 S9G26      N/A
* THREE FORKS  CLOUDY    23   3  42 N/A        N/A
* BOULDER HILL N/A       39  20  46 S12G19     N/A   WCI  32
* MONIDA PASS  N/A       30  30 100 SE17       N/A   WCI  18
* RAYNOLDS PAS N/A       34  19  54 S15G20     N/A   WCI  24
* WHITEHALL    N/A       49  24  38 SW16G26    N/A
* WISE RIVER   N/A       34  25  70 E4         N/A
$$

MTZ009>010-012-014-046-048-049-054-271400-
EAST SLOPES AND CENTRAL MONTANA
CITY           SKY/WX    TMP DP  RH WIND       PRES   REMARKS
CUT BANK       FOG       23  21  92 S5        29.75F VSB M1/4 WCI  16
GREAT FALLS    PTCLDY    39  30  70 SW13      29.82F WCI  31
HELENA         FOG       25  23  92 CALM      29.94F VSB 1 1/2
MALMSTROM AFB  PTCLDY    37  32  82 SW15      29.83F WCI  28
* CONRAD       PTCLDY    19  18  96 CALM       N/A
* DEARBORN     N/A       49  30  48 W2         N/A
* EAST GLACIER N/A       40  35  82 W37G48     N/A   WCI  27
* MONARCH      N/A       42  22  45 SW14       N/A
* PENDROY      N/A       47  28  48 NW10G25    N/A
* SAINT MARY   N/A       40  36  86 SW13G27    N/A   WCI  32
* SWEET GRASS  N/A       25  25 100 S20G26     N/A   WCI  11
* WHITE SULPH  N/A       43  26  51 S13G22     N/A
$$

MTZ011-013-016-021-035-040-045-047-050-051-271400-
NORTH CENTRAL MONTANA
CITY           SKY/WX    TMP DP  RH WIND       PRES   REMARKS
HAVRE          FRZ RAIN  30  27  89 E6        29.84F WCI  24
LEWISTOWN      CLOUDY    43  30  60 SW15      29.88F
* N BAR RANCH  CLOUDY    46  30  54 W12       29.87F
* CHINOOK      CLOUDY    28  27  96 E15       29.85F WCI  16
* FORT BENTON  MOCLDY    32  28  85 NE3       29.82F
* MALTA APT    MOCLDY    28  23  81 E7         N/A   WCI  21
* CHESTER      N/A       28  27  96 SE3        N/A
* DENTON       N/A       28  27  96 S2         N/A
* JUDITH GAP   N/A       26  26 100 SE9        N/A   WCI  17
* LOMA         N/A       30  28  92 E10        N/A   WCI  21
$$

MTZ017>020-022>027-061-062-271400-
NORTHEAST MONTANA
CITY           SKY/WX    TMP DP  RH WIND       PRES   REMARKS
GLASGOW        LGT SNOW  21  18  88 SE21      29.98F VSB 1 1/4 WCI   5
GLENDIVE       CLOUDY    21  18  88 E5        30.09F VSB 2    WCI  14
JORDAN         MOCLDY    28  25  89 SE14      29.96F WCI  17
SIDNEY         CLOUDY    19  12  74 E5        30.15F WCI  12
WOLF POINT     CLOUDY    18  12  77 E13       30.10F WCI   5
* BEAVER HILL  N/A       22  18  85 E17        N/A   WCI   8
* CIRCLE       N/A       26  24  92 SE9        N/A   WCI  17
* LINDSAY DVD  N/A       20  18  92 E12G17     N/A   WCI   8
* NAVAJO       N/A        8   5  87 E2         N/A
* PLENTYWOOD A MOCLDY     9   7  91 N/A       30.12F
* POPLAR APT   MOCLDY    18  12  77 N/A       30.10F
* SACO         N/A       21  18  88 E18G23     N/A   WCI   6
* SCOBEY APT   MOCLDY    16   7  67 N/A        N/A
$$

MTZ028>042-056>058-271400-
SOUTHCENTRAL AND SOUTHEAST MONTANA
CITY           SKY/WX    TMP DP  RH WIND       PRES   REMARKS
BAKER          LGT SNOW  21  18  88 SE18      30.08F WCI   6
BILLINGS       CLOUDY    28  27  96 S12       29.96F WCI  18
LIVINGSTON     CLOUDY    45  30  56 SW35G41   29.95F
MILES CITY     CLOUDY    27  21  78 SE13      30.03F WCI  16
* BIG TIMBER A CLOUDY    45  28  51 S6G17     29.94F
* FORSYTH APT  CLOUDY    28  27  96 E5        29.98F WCI  22
* LAUREL APT   CLOUDY    28  21  75 N/A        N/A
* ALZADA       N/A       20  18  92 E6         N/A   WCI  12
* HYSHAM       N/A       32  27  82 W2G8       N/A
* LAME DEER    N/A       31  30  96 SW7G13     N/A   WCI  24
* REED POINT   N/A       25  24  96 N/A        N/A
* ROSCOE HILL  N/A       48  14  25 SW8G23     N/A
$$

REGIONAL REPORTS...DAKOTAS
CITY           SKY/WX    TMP DP  RH WIND       PRES   REMARKS
WILLISTON      CLOUDY    10   7  88 CALM      30.19F
DICKINSON      CLOUDY    14  10  84 S13       30.14F
BEACH          CLOUDY    19  18  96 SE13      30.11F WCI   6
CROSBY         CLOUDY     9   7  91 S6        30.19F WCI  -1
TIOGA          CLOUDY     9   9 100 S10       30.21F WCI  -5
BISMARCK       MOCLDY    -4  -9  79 E6        30.36F WCI -17
GRAND FORKS    PTCLDY   -17 -20  86 S6        30.51S WCI -32
FARGO          MOCLDY   -11 -18  70 CALM      30.53F
BUFFALO SD     MOCLDY    19  16  88 SE15      30.05F WCI   5
RAPID CITY     CLOUDY    19  18  96 SE9       30.14F WCI   8
$$

REGIONAL REPORTS...WYOMING/IDAHO/WASHINGTON
CITY           SKY/WX    TMP DP  RH WIND       PRES   REMARKS
GILLETTE       CLOUDY    27  23  85 CALM      30.01F
SHERIDAN       CLOUDY    23  19  85 CALM      30.01F
CODY           MOCLDY    46  34  63 E3G16     30.00F
YELLOWSTONE LA CLOUDY    28  27  96 CALM      30.21F
SALMON         CLOUDY    32  30  92 S6        30.15F WCI  26
MULLAN PASS    LGT RAIN  36  32  85 SW12G31   29.93S WCI  28
SAND POINT     FOG       36  36 100 CALM      29.88F
SPOKANE        CLOUDY    50  39  66 SW18      29.85F
$$

REGIONAL REPORTS...ALBERTA
CITY           SKY/WX    TMP DP  RH WIND       PRES   REMARKS
LETHBRIDGE     CLOUDY    25  25 100 W5        29.70F WCI  19
MEDICINE HAT   LGT SNOW  28  28 100 NE9       29.79F VSB 2    WCI  19
EDMONTON       LGT SNOW  14  10  84 NE16      29.95F VSB 3/4  WCI  -2
WATERTON GATE  N/A       43  36  76 SW30G46    N/A
CARDSTON       N/A       21  21 100 N2         N/A
MILK RIVER     N/A       28  27  96 S17        N/A   WCI  16
$$

REGIONAL REPORTS...SASKATCHEWAN
CITY           SKY/WX    TMP DP  RH WIND       PRES   REMARKS
SWIFT CURRENT  LGT SNOW  21  19  92 SE17G23   29.93F VSB 3    WCI   7
MOOSE JAW      CLOUDY    14  12  92 E6        30.09F WCI   5
REGINA         CLOUDY     9   5  84 SE14      30.13F WCI  -7
VAL MARIE      N/A       23  23 100 SE15       N/A   WCI  10
ASSINIBOIA     N/A       12   9  88 SE9        N/A
CORONACH       N/A       12   9  88 E8         N/A

$$



USA.gov is the U.S. government's official web portal to all federal, state and local government web resources and services.